• Processing (Info)

  • MPEC 2004-F06 : 2004 EV9

    The following Minor Planet Electronic Circular may be linked-to from your own Web pages, but must not otherwise be redistributed electronically.

    A form allowing access to any MPEC is at the bottom of this page.


    Read MPEC 2004-F05 Read MPEC 2004-F07


    M.P.E.C. 2004-F06                                Issued 2004 Mar. 16, 12:50 UT
    
         The Minor Planet Electronic Circulars contain information on unusual
             minor planets and routine data on comets.  They are published
       on behalf of Commission 20 of the International Astronomical Union by the
              Minor Planet Center, Smithsonian Astrophysical Observatory,
                              Cambridge, MA 02138, U.S.A.
    
             Supported in part by the Steven and Michele Kirsch Foundation
                 Prepared using the Tamkin Foundation Computer Network
    
                                  MPC@CFA.HARVARD.EDU
              URL http://cfa-www.harvard.edu/iau/mpc.html  ISSN 1523-6714
    
                                       2004 EV9
    
    Observations:
         K04E09V* C2004 03 15.27944 12 02 30.01 +09 49 10.2          18.0   EF006704
         K04E09V  C2004 03 15.29059 12 02 26.71 +09 50 07.8          17.0   EF006704
         K04E09V  C2004 03 15.30157 12 02 23.47 +09 51 03.0          16.8   EF006704
         K04E09V  C2004 03 15.31267 12 02 20.17 +09 51 59.1          16.8   EF006704
         K04E09V  C2004 03 15.32359 12 02 16.92 +09 52 54.0          16.7   EF006704
         K04E09V  C2004 03 16.04926 11 58 52.01 +10 52 00.0          17.0 V EF006198
         K04E09V  C2004 03 16.05138 11 58 51.38 +10 52 10.5          17.0 V EF006198
         K04E09V  C2004 03 16.05457 11 58 50.48 +10 52 25.1          17.0 V EF006198
         K04E09V  C2004 03 16.05987 11 58 48.93 +10 52 51.3          16.7 V EF006198
         K04E09V  C2004 03 16.09841 11 58 38.17 +10 55 54.6          16.6 R EF006132
         K04E09V  C2004 03 16.10221 11 58 37.10 +10 56 12.6          16.8 R EF006132
         K04E09V  C2004 03 16.10601 11 58 36.04 +10 56 30.6          16.8 R EF006132
         K04E09V  C2004 03 16.27776 11 57 49.98 +11 10 05.2          16.1 R EF006H06
         K04E09V  C2004 03 16.27826 11 57 49.87 +11 10 07.2          16.1 R EF006H06
         K04E09V  C2004 03 16.27877 11 57 49.69 +11 10 10.0          16.1 R EF006H06
         K04E09V  C2004 03 16.27927 11 57 49.56 +11 10 12.1          16.2 R EF006H06
         K04E09V  C2004 03 16.27977 11 57 49.42 +11 10 14.4          16.1 R EF006H06
         K04E09V  C2004 03 16.28792 11 57 47.27 +11 10 53.3          16.3 R EF006854
         K04E09V  C2004 03 16.28902 11 57 46.95 +11 10 58.5          16.3 R EF006854
         K04E09V  C2004 03 16.29012 11 57 46.63 +11 11 03.5          16.3 R EF006854
         K04E09V  C2004 03 16.39285 11 57 17.70 +11 19 07.6          18.0 R EF006G72
         K04E09V  C2004 03 16.39653 11 57 16.93 +11 19 20.1          18.3 R EF006G72
         K04E09V  C2004 03 16.40042 11 57 15.94 +11 19 37.2          18.1 R EF006G72
         K04E09V  C2004 03 16.40618 11 57 14.40 +11 20 02.8          18.7 R EF006G72
         K04E09V  C2004 03 16.41002 11 57 13.08 +11 20 23.6          18.9 R EF006G72
         K04E09V 5C2004 03 16.45984 11 56 59.49 +11 24 10.4          17.0 R EF006673
         K04E09V 5C2004 03 16.46169 11 56 59.00 +11 24 18.6                 EF006673
         K04E09V 5C2004 03 16.46296 11 56 58.61 +11 24 25.2                 EF006673
         K04E09V 5C2004 03 16.46574 11 56 57.85 +11 24 37.8                 EF006673
    
    Observer details:
    132 Bedoin.  Observer P. Antonini.  0.30-m f/3.3 Schmidt-Cassegrain + CCD.
    198 Wildberg.  Observer R. Apitzsch.  0.235-m Schmidt-Cassegrain + CCD.
    673 Table Mountain Observatory, Wrightwood.  Observer J. Young.  0.6-m
        reflector + CCD.
    704 Lincoln Laboratory ETS, New Mexico.  Observers M. Blythe, F. Shelly,
        M. Bezpalko, R. Huber, L. Manguso, D. Torres, R. Kracke, M. McCleary,
        H. Stange, A. Milner.  Measurers J. Stuart, R. Sayer, J. Evans, J. Kommers.
        1.0-m f/2.15 reflector + CCD.
    854 Sabino Canyon Observatory, Tucson.  Observer J. E. McGaha.  0.356-m f/10.0
        Schmidt-Cassegrain + CCD.
    G72 University Hills.  Observer J. Foster.  13" reflector at f/6.3 + CCD.
    H06 New Mexico Skies Observatory.  Observer R. Hutsebaut.
    
    Orbital elements:
    2004 EV9
    Epoch 2004 Mar. 16.0 TT = JDT 2453080.5                 MPC
    M  39.90078              (2000.0)            P               Q
    n   0.55503036     Peri.  226.53572     +0.75299477     -0.65260869
    a   1.4664195      Node   172.59164     +0.60712205     +0.73841077
    e   0.7790831      Incl.   40.80817     -0.25377489     -0.16985709
    P   1.78           H   18.3           G   0.15
    From 27 observations 2004 Mar. 15-16.
    
    Ephemeris:
    2004 EV9                 a,e,i = 1.47, 0.78, 41                  q = 0.3240
    Date    TT    R. A. (2000) Decl.     Delta      r     Elong.  Phase     V
    2004 03 16    11 59.10   +10 48.3    0.362    1.353   170.2     7.2    17.3
    2004 03 26    11 24.37   +20 02.5    0.505    1.468   153.8    17.5    18.6
    2004 04 05    11 06.21   +24 10.5    0.674    1.575   139.4    24.4    19.6
    2004 04 15    10 58.03   +25 53.4    0.858    1.674   128.0    28.2    20.3
    2004 04 25    10 56.15   +26 22.1    1.051    1.766   118.3    30.1    20.9
    2004 05 05    10 58.43   +26 09.6    1.249    1.851   109.7    30.9    21.4
    2004 05 15    11 03.51   +25 32.8    1.451    1.931   101.8    30.8    21.9
    
    Timothy B. Spahr             (C) Copyright 2004 MPC           M.P.E.C. 2004-F06
    

    Read MPEC 2004-F05 Read MPEC 2004-F07


    MPEC number:

    Enter an MPEC number in one of the following forms:

    • 1997-B01 (the full form)
    • J97B01 (the packed version of the full form)
    • B01 (the abbreviated form)